Home   Weather   London   Past weeks

Flag for United Kingdom Past Weather in London, England, United Kingdom — Yesterday and Last 2 Weeks

Now
48 °F

Light rain. Mostly cloudy.


Feels Like: 42 °F
Forecast: 42 / 58 °F
Wind: 16 mph from North

Location: Northolt

Current Time: Sep 23, 2018 at 11:24:55 am

Latest Report: Sep 23, 2018 at 10:50 am


Visibility: N/A

Pressure: 30.01 "Hg

Humidity: 87%

Dew Point: 45 °F

Location of LondonLocation

Past Weather in London — Graph

°F

London Temperature Yesterday

Maximum temperature yesterday: 55 °F (at 9:50 am)
Minimum temperature yesterday: 50 °F (at 8:50 pm)
Average temperature yesterday: 52 °F

High & Low Weather Summary for the Past Weeks

 TemperatureHumidityPressure
High77 °F (Sep 17, 1:50 pm)100% (Sep 12, 5:50 am)30.24 "Hg (Sep 12, 5:50 am)
Low43 °F (Sep 13, 3:50 am)36% (Sep 17, 3:50 pm)29.45 "Hg (Sep 21, 12:50 am)
Average61 °F75%30.02 "Hg
* Reported Sep 8 9:50 am — Sep 23 9:50 am, London. Weather by CustomWeather, © 2018

Note: Actual official high and low records may vary slightly from our data, if they occured in-between our weather recording intervals... More about our weather records

Advertising

London Weather History for the Previous 24 Hours

Scroll right to see more
 ConditionsComfort  
Time TempWeatherWind HumidityBarometerVisibility
9:50 am
Sun, Sep 23
48 °FRain. Cloudy.8 mph100%29.98 "Hg3 mi
9:20 am48 °FLight rain. Cloudy.8 mph100%29.98 "Hg3 mi
8:50 am48 °FDrizzle. Cloudy.9 mph100%29.95 "Hg2 mi
8:10 am48 °FDrizzle. Mostly cloudy.8 mph100%29.92 "Hg3 mi
7:50 am48 °FDrizzle. Mostly cloudy.6 mph100%29.92 "Hg2 mi
6:50 am48 °FDrizzle. Mostly cloudy.9 mph100%29.92 "Hg1 mi
5:50 am50 °FPassing clouds.7 mph88%29.92 "Hg3 mi
4:50 am50 °FPassing clouds.9 mph94%29.92 "Hg6 mi
3:50 am52 °FPartly cloudy.9 mph88%29.92 "HgN/A
2:50 am50 °FPassing clouds.8 mph100%29.92 "HgN/A
1:50 am52 °FPassing clouds.9 mph94%29.95 "Hg2 mi
12:50 am52 °FLow clouds.9 mph94%29.95 "HgN/A
11:50 pm
Sat, Sep 22
52 °FLow clouds.9 mph94%29.95 "HgN/A
10:50 pm52 °FLow clouds.8 mph94%29.95 "HgN/A
9:50 pm52 °FLow clouds.9 mph94%29.92 "Hg5 mi
8:50 pm50 °FPartly cloudy.9 mph100%29.95 "HgN/A
7:50 pm52 °FPartly cloudy.8 mph94%29.95 "Hg2 mi
6:35 pm52 °FLight rain. Partly sunny.8 mph94%29.98 "Hg4 mi
5:50 pm52 °FLight rain. Broken clouds.8 mph94%29.98 "Hg4 mi
5:10 pm52 °FLight rain. Broken clouds.8 mph94%30.01 "HgN/A
4:50 pm52 °FRain. Partly sunny.6 mph94%30.01 "Hg4 mi
3:50 pm54 °FLight rain. Partly sunny.6 mph88%30.04 "HgN/A
2:50 pm54 °FRain. Overcast.2 mph88%30.07 "Hg3 mi
1:50 pm54 °FOvercast.3 mph88%30.07 "HgN/A
12:50 pm54 °FLight rain. Overcast.5 mph88%30.09 "Hg5 mi
12:28 pm54 °FRain. Overcast.6 mph88%30.12 "Hg4 mi
11:50 am52 °FLight rain. Overcast.9 mph88%30.09 "HgN/A
11:12 am54 °FLight rain. Overcast.10 mph88%30.12 "Hg4 mi
Weather by CustomWeather, © 2018

See weather overview